Watsonville, CA

4:40 PM PST on November 19, 2017 (GMT -0800)
Watsonville Municipal

Weather History for KWVI - February, 2013

Change the Weather History Date:

Thursday, February 28, 2013

  Actual Average Record
Temperature  
Mean Temperature 53 °F 52 °F  
Max Temperature 66 °F 62 °F 71 °F (2002)
Min Temperature 40 °F 44 °F 34 °F (2011)
Degree Days  
Heating Degree Days 12    
Month to date heating degree days 443  
Since 1 July heating degree days 2173  
Cooling Degree Days 0    
Month to date cooling degree days 0  
Year to date cooling degree days 0  
Growing Degree Days 2 (Base 50)    
Moisture  
Dew Point 43 °F    
Average Humidity 73    
Maximum Humidity 93    
Minimum Humidity 52    
Precipitation  
Precipitation 0.00 in - 1.68 in (2014)
Month to date precipitation 0.47  
Year to date precipitation 1.15  
Since 1 July precipitation 12.09  
Sea Level Pressure  
Sea Level Pressure 30.41 in    
Wind  
Wind Speed 3 mph (SW)    
Max Wind Speed 12 mph    
Max Gust Speed 14 mph    
Visibility 10 miles    
Events      
T = Trace of Precipitation, MM = Missing Value Source: NWS Daily Summary

Daily Weather History Graph

Daily Weather History Graph

Search for Another Location

Airport or City:

Trip Planner

Search our weather history database for the weather conditions in past years. The results will help you decide how hot, cold, wet, or windy it might be!

Date:

Astronomy

Feb. 28, 2013 Rise Set
Actual Time 6:38 AM PST 6:00 PM PST
Civil Twilight 6:12 AM PST 6:26 PM PST
Nautical Twilight 5:42 AM PST 6:56 PM PST
Astronomical Twilight 5:12 AM PST 7:27 PM PST
Moon 9:27 PM PST (2/28) 7:57 AM PST (2/28)
Length of Visible Light 12h 14m
Length of Day
11h 21m
Waning Gibbous, 90% of the Moon is Illuminated
Feb 28
Waning Gibbous
Mar 4
Last Quarter
Mar 11
New
Mar 19
First Quarter
Mar 27
Full

Hourly Weather History & Observations

Time (PST) Temp. Windchill Dew Point Humidity Pressure Visibility Wind Dir Wind Speed Gust Speed Precip Events Conditions
12:53 AM 44.1 °F 40.8 °F 39.0 °F 82% 30.39 in 10.0 mi WNW 5.8 mph - N/A   Clear
1:53 AM 43.0 °F 41.3 °F 37.9 °F 82% 30.39 in 10.0 mi NW 3.5 mph - N/A   Clear
2:53 AM 41.0 °F - 37.0 °F 86% 30.39 in 10.0 mi Calm Calm - N/A   Clear
3:53 AM 42.1 °F - 37.0 °F 82% 30.39 in 10.0 mi Calm Calm - N/A   Clear
4:53 AM 42.1 °F 40.2 °F 37.0 °F 82% 30.40 in 10.0 mi Variable 3.5 mph - N/A   Clear
5:53 AM 41.0 °F - 37.0 °F 86% 30.41 in 10.0 mi Calm Calm - N/A   Clear
6:53 AM 41.0 °F 39.0 °F 37.0 °F 86% 30.43 in 10.0 mi WNW 3.5 mph - N/A   Clear
7:53 AM 46.0 °F - 39.9 °F 79% 30.45 in 10.0 mi Calm Calm - N/A   Clear
8:53 AM 51.1 °F - 42.1 °F 71% 30.46 in 10.0 mi Calm Calm - N/A   Clear
9:53 AM 55.0 °F - 42.1 °F 62% 30.46 in 10.0 mi Calm Calm - N/A   Clear
10:53 AM 60.1 °F - 44.1 °F 55% 30.45 in 10.0 mi Variable 3.5 mph - N/A   Clear
11:53 AM 62.1 °F - 44.1 °F 52% 30.43 in 10.0 mi South 3.5 mph - N/A   Clear
12:53 PM 64.9 °F - 46.0 °F 50% 30.41 in 10.0 mi South 6.9 mph - N/A   Clear
1:53 PM 62.1 °F - 46.9 °F 58% 30.40 in 10.0 mi SW 9.2 mph - N/A   Clear
2:53 PM 64.0 °F - 46.9 °F 54% 30.38 in 10.0 mi Variable 3.5 mph - N/A   Clear
3:53 PM 64.9 °F - 51.1 °F 61% 30.38 in 10.0 mi SE 5.8 mph - N/A   Clear
4:53 PM 60.1 °F - 50.0 °F 69% 30.38 in 10.0 mi South 6.9 mph - N/A   Clear
5:53 PM 55.0 °F - 48.9 °F 80% 30.39 in 10.0 mi South 4.6 mph - N/A   Clear
6:53 PM 52.0 °F - 48.0 °F 86% 30.40 in 10.0 mi Calm Calm - N/A   Clear
8:53 PM 50.0 °F - 46.9 °F 89% 30.44 in 10.0 mi Calm Calm - N/A   Clear
9:53 PM 48.0 °F - 45.0 °F 89% 30.44 in 10.0 mi Calm Calm - N/A   Clear
10:53 PM 48.0 °F - 46.0 °F 93% 30.44 in 10.0 mi NW 3.5 mph - N/A   Clear